period_start,C,m1,H,J0,J1,J2,J3,J4,J5,JA,JB,JC,JD,JJ,JK,JN,#
2014-10-13 00:00:36,0.06,1.28,0.00,23.15,27.15,29.93,4.69,26.82,1008.24,2036.02,2925.67,2962.57,3191.09,349.81,344.59,13.64,0000 0000 0000 0000 000000
2014-10-13 00:05:38,0.03,1.29,0.00,23.14,27.15,29.98,4.63,26.68,1008.17,2036.00,2925.04,2962.04,3190.99,349.36,343.93,13.67,0000 0000 0000 0000 000000
2014-10-13 00:10:39,0.02,1.29,0.00,23.14,27.15,29.95,4.69,26.75,1008.12,2036.00,2924.86,2961.99,3190.59,349.63,344.26,13.70,0000 0000 0000 0000 000000
2014-10-13 00:15:40,0.06,1.29,0.00,23.11,27.15,29.97,4.69,26.78,1008.08,2036.00,2924.15,2961.65,3190.03,349.64,344.28,13.73,0000 0000 0000 0000 000000
2014-10-13 00:20:41,0.02,1.29,0.00,23.17,27.17,29.97,4.86,26.86,1007.97,2036.00,2923.98,2961.04,3189.96,350.62,345.14,13.76,0000 0000 0000 0000 000000
2014-10-13 00:25:42,0.05,1.29,0.00,23.18,27.17,29.97,4.73,26.80,1008.06,2036.00,2923.25,2960.97,3189.29,349.77,344.33,13.78,0000 0000 0000 0000 000000
2014-10-13 00:30:44,0.03,1.29,0.00,23.18,27.17,29.97,4.71,26.73,1008.18,2036.00,2922.97,2960.50,3189.00,349.37,344.19,13.81,0000 0000 0000 0000 000000
2014-10-13 00:35:45,0.04,1.29,0.00,23.17,27.17,29.99,4.75,26.73,1008.26,2036.00,2922.36,2960.05,3188.89,350.23,345.15,13.84,0000 0000 0000 0000 000000
2014-10-13 00:40:46,0.03,1.29,0.00,23.16,27.17,29.98,4.70,26.70,1008.31,2036.00,2921.99,2959.97,3188.10,349.87,344.47,13.87,0000 0000 0000 0000 000000
2014-10-13 00:45:48,0.02,1.29,0.00,23.20,27.19,29.99,4.76,26.71,1008.31,2036.00,2921.57,2959.82,3188.00,349.99,344.40,13.90,0000 0000 0000 0000 000000
2014-10-13 00:50:49,0.05,1.30,0.00,23.21,27.20,29.99,4.80,26.68,1008.31,2036.00,2921.03,2959.20,3187.99,349.89,344.56,13.93,0000 0000 0000 0000 000000
2014-10-13 00:55:50,0.03,1.30,0.00,23.20,27.20,30.03,4.76,26.67,1008.31,2036.00,2920.90,2959.00,3187.33,350.37,345.02,13.96,0000 0000 0000 0000 000000
2014-10-13 01:00:51,0.03,1.30,0.00,23.23,27.20,30.01,4.80,26.73,1008.31,2036.00,2920.25,2958.97,3187.01,349.80,344.30,13.99,0000 0000 0000 0000 000000
2014-10-13 01:05:53,0.04,1.30,0.00,23.22,27.20,30.02,4.73,26.64,1008.32,2036.00,2920.00,2958.40,3186.96,349.63,344.25,14.02,0000 0000 0000 0000 000000
2014-10-13 01:10:54,0.05,1.30,0.00,23.21,27.20,30.00,4.70,26.63,1008.32,2035.99,2919.38,2958.01,3186.21,349.78,344.43,14.05,0000 0000 0000 0000 000000
2014-10-13 01:15:55,0.00,1.30,0.00,23.23,27.20,30.01,4.78,26.72,1008.32,2035.99,2919.01,2957.98,3186.00,350.00,344.82,14.08,0000 0000 0000 0000 000000
2014-10-13 01:20:56,0.05,1.30,0.00,23.25,27.21,30.02,4.81,26.82,1008.32,2035.98,2918.65,2957.47,3185.91,350.14,344.72,14.11,0000 0000 0000 0000 000000
2014-10-13 01:25:58,0.04,1.30,0.00,23.23,27.21,30.00,4.74,26.66,1008.32,2035.99,2918.03,2957.04,3185.25,349.84,344.36,14.14,0000 0000 0000 0000 000000
2014-10-13 01:31:00,0.01,1.30,0.00,23.25,27.22,30.00,4.72,26.59,1008.33,2035.99,2917.85,2956.99,3185.00,349.62,344.05,14.17,0000 0000 0000 0000 000000
2014-10-13 01:36:01,0.04,1.31,0.00,23.24,27.22,30.00,4.75,26.63,1008.32,2035.99,2917.11,2956.78,3184.93,350.16,344.74,14.19,0000 0000 0000 0000 000000
2014-10-13 01:41:02,0.05,1.31,0.00,23.23,27.22,30.00,4.67,26.55,1008.33,2035.97,2916.98,2956.07,3184.18,350.02,344.60,14.22,0000 0000 0000 0000 000000
2014-10-13 01:46:03,0.03,1.31,0.00,23.22,27.22,29.99,4.68,26.56,1008.33,2035.99,2916.39,2956.00,3184.01,348.98,343.89,14.25,0000 0000 0000 0000 000000
2014-10-13 01:51:05,0.01,1.31,0.00,23.24,27.22,29.97,4.71,26.52,1008.33,2035.99,2915.99,2955.91,3183.96,349.91,344.52,14.28,0000 0000 0000 0000 000000
2014-10-13 01:56:06,0.07,1.31,0.00,23.25,27.22,29.98,4.71,26.57,1008.34,2035.99,2915.74,2955.29,3183.46,349.88,344.67,14.31,0000 0000 0000 0000 000000
2014-10-13 02:01:07,0.03,1.31,0.00,23.25,27.22,29.99,4.65,26.48,1008.34,2035.99,2915.07,2955.01,3183.02,349.63,344.03,14.34,0000 0000 0000 0000 000000
2014-10-13 02:06:09,0.01,1.31,0.00,23.26,27.22,29.99,4.67,26.51,1008.35,2035.97,2914.86,2954.94,3182.92,349.85,344.78,14.37,0000 0000 0000 0000 000000
2014-10-13 02:11:10,0.07,1.31,0.00,23.27,27.22,29.97,4.76,26.58,1008.37,2035.99,2914.26,2954.54,3182.40,350.50,345.07,14.40,0000 0000 0000 0000 000000
2014-10-13 02:16:11,0.02,1.32,0.00,23.27,27.22,30.00,4.72,26.62,1008.43,2035.99,2913.93,2954.03,3182.02,350.31,344.91,14.43,0000 0000 0000 0000 000000
2014-10-13 02:21:13,0.03,1.32,0.00,23.27,27.22,29.99,4.62,26.57,1008.61,2035.98,2913.12,2953.96,3181.95,349.52,344.06,14.46,0000 0000 0000 0000 000000
2014-10-13 02:26:14,0.07,1.32,0.00,23.27,27.22,29.99,4.67,26.59,1008.64,2035.99,2912.84,2953.48,3181.17,349.82,344.35,14.49,0000 0000 0000 0000 000000
2014-10-13 02:31:15,0.03,1.32,0.00,23.27,27.22,29.98,4.74,26.63,1008.68,2035.98,2912.09,2953.01,3180.99,350.32,345.02,14.52,0000 0000 0000 0000 000000
2014-10-13 02:36:17,0.05,1.32,0.00,23.27,27.22,29.98,4.73,26.63,1008.69,2035.98,2911.66,2952.91,3180.49,349.86,344.65,14.55,0000 0000 0000 0000 000000
2014-10-13 02:41:18,0.05,1.32,0.00,23.27,27.22,29.97,4.73,26.48,1008.72,2035.97,2911.00,2952.14,3180.01,350.54,345.15,14.58,0000 0000 0000 0000 000000
2014-10-13 02:46:20,0.04,1.32,0.00,23.26,27.22,29.98,4.69,26.61,1008.77,2035.99,2910.40,2952.00,3179.92,350.10,344.79,14.60,0000 0000 0000 0000 000000
2014-10-13 02:51:21,0.04,1.32,0.00,23.26,27.22,30.01,4.82,26.57,1008.79,2035.99,2909.91,2951.83,3179.20,350.33,345.17,14.63,0000 0000 0000 0000 000000
2014-10-13 02:56:22,0.06,1.33,0.00,23.25,27.22,30.02,4.69,26.44,1008.79,2035.99,2909.07,2951.11,3178.98,349.81,344.55,14.66,0000 0000 0000 0000 000000
2014-10-13 03:01:23,0.05,1.33,0.00,23.25,27.22,29.99,4.73,26.49,1008.79,2035.99,2908.65,2950.98,3178.20,350.10,344.70,14.69,0000 0000 0000 0000 000000
2014-10-13 03:06:24,0.05,1.33,0.00,23.27,27.22,29.99,4.76,26.44,1008.79,2035.99,2908.00,2950.34,3177.99,350.26,344.78,14.72,0000 0000 0000 0000 000000
2014-10-13 03:11:25,0.05,1.33,0.00,23.27,27.22,29.99,4.74,26.49,1008.79,2035.99,2907.44,2950.00,3177.46,350.17,344.81,14.75,0000 0000 0000 0000 000000
2014-10-13 03:16:26,0.03,1.33,0.00,23.28,27.22,29.98,4.76,26.54,1008.78,2035.99,2906.95,2949.76,3177.01,350.14,344.84,14.78,0000 0000 0000 0000 000000
2014-10-13 03:21:27,0.07,1.33,0.00,23.28,27.22,29.97,4.69,26.54,1008.80,2035.99,2906.20,2949.07,3176.78,349.63,344.38,14.81,0000 0000 0000 0000 000000
2014-10-13 03:26:28,0.02,1.34,0.00,23.29,27.22,29.98,4.70,26.51,1008.80,2035.99,2905.97,2949.00,3176.09,349.58,344.11,14.84,0000 0000 0000 0000 000000
2014-10-13 03:31:30,0.06,1.34,0.00,23.30,27.22,29.99,4.70,26.39,1008.80,2035.99,2905.20,2948.47,3175.96,349.67,344.35,14.87,0000 0000 0000 0000 000000
2014-10-13 03:36:31,0.04,1.34,0.00,23.30,27.22,29.98,4.67,26.63,1008.81,2035.99,2904.82,2948.02,3175.26,350.06,344.64,14.90,0000 0000 0000 0000 000000
2014-10-13 03:41:32,0.03,1.34,0.00,23.30,27.21,29.97,4.83,26.88,1008.81,2035.99,2904.05,2947.85,3174.98,350.22,344.88,14.93,0000 0000 0000 0000 000000
2014-10-13 03:46:34,0.08,1.34,0.00,23.31,27.21,29.98,4.79,26.63,1008.82,2035.99,2903.64,2947.09,3174.36,350.17,344.80,14.96,0000 0000 0000 0000 000000
2014-10-13 03:51:35,0.01,1.34,0.00,23.33,27.21,29.96,4.73,26.50,1008.81,2035.98,2902.95,2946.94,3173.99,350.12,344.80,14.99,0000 0000 0000 0000 000000
2014-10-13 03:56:36,0.10,1.35,0.00,23.32,27.22,29.97,4.68,26.45,1008.82,2035.98,2902.11,2946.21,3173.45,349.38,344.33,15.01,0000 0000 0000 0000 000000
2014-10-13 04:01:38,0.01,1.35,0.00,23.30,27.21,29.96,4.78,26.58,1008.82,2035.99,2901.82,2945.99,3173.03,350.20,344.82,15.04,0000 0000 0000 0000 000000
2014-10-13 04:06:39,0.07,1.35,0.00,23.27,27.21,29.96,4.73,26.52,1008.85,2035.98,2901.06,2945.66,3172.66,349.76,344.35,15.07,0000 0000 0000 0000 000000
2014-10-13 04:11:40,0.05,1.35,0.00,23.27,27.21,29.98,4.78,26.66,1008.89,2035.97,2900.53,2945.02,3172.04,350.43,345.28,15.10,0000 0000 0000 0000 000000
2014-10-13 04:16:42,0.02,1.35,0.00,23.26,27.20,29.97,4.81,26.73,1008.94,2035.98,2899.97,2944.90,3171.83,349.91,344.76,15.13,0000 0000 0000 0000 000000
2014-10-13 04:21:43,0.09,1.35,0.00,23.25,27.20,29.97,4.84,26.64,1009.02,2035.98,2899.23,2944.14,3171.09,350.16,344.97,15.16,0000 0000 0000 0000 000000
2014-10-13 04:26:44,0.01,1.35,0.00,23.27,27.20,29.98,4.71,26.57,1009.13,2035.99,2898.86,2944.00,3170.93,349.98,344.70,15.19,0000 0000 0000 0000 000000
2014-10-13 04:31:45,0.09,1.36,0.00,23.25,27.20,29.98,4.84,26.54,1009.17,2035.99,2898.03,2943.53,3170.10,350.51,345.10,15.22,0000 0000 0000 0000 000000
2014-10-13 04:36:46,0.05,1.36,0.00,23.24,27.20,29.95,4.75,26.52,1009.17,2035.99,2897.21,2943.01,3169.74,349.73,344.71,15.25,0000 0000 0000 0000 000000
2014-10-13 04:41:48,0.05,1.36,0.00,23.25,27.20,29.96,4.73,26.48,1009.21,2035.97,2896.74,2942.57,3169.03,350.15,345.08,15.28,0000 0000 0000 0000 000000
2014-10-13 04:46:49,0.04,1.36,0.00,23.25,27.20,29.97,4.81,26.52,1009.27,2035.96,2896.04,2942.02,3168.93,350.02,345.20,15.31,0000 0000 0000 0000 000000
2014-10-13 04:51:51,0.06,1.36,0.00,23.25,27.21,29.96,4.75,26.50,1009.29,2035.98,2895.38,2941.87,3168.11,349.92,344.95,15.34,0000 0000 0000 0000 000000
2014-10-13 04:56:52,0.05,1.36,0.00,23.25,27.21,29.96,4.74,26.48,1009.29,2035.98,2894.80,2941.13,3167.90,349.49,344.28,15.37,0000 0000 0000 0000 000000
2014-10-13 05:01:53,0.05,1.37,0.00,23.25,27.21,29.98,4.62,26.37,1009.30,2035.97,2893.99,2940.90,3167.11,349.43,344.35,15.39,0000 0000 0000 0000 000000
2014-10-13 05:06:54,0.09,1.37,0.00,23.23,27.21,29.97,4.80,26.45,1009.30,2035.96,2893.12,2940.10,3166.60,350.36,345.36,15.42,0000 0000 0000 0000 000000
2014-10-13 05:11:55,0.04,1.37,0.00,23.27,27.22,29.98,4.73,26.43,1009.29,2035.98,2892.40,2939.99,3166.01,349.97,345.09,15.45,0000 0000 0000 0000 000000
2014-10-13 05:16:57,0.08,1.37,0.00,23.26,27.22,29.96,4.68,26.52,1009.30,2035.98,2891.76,2939.33,3165.63,349.50,344.48,15.48,0000 0000 0000 0000 000000
2014-10-13 05:21:58,0.03,1.37,0.00,23.26,27.22,29.98,4.72,26.48,1009.31,2035.97,2891.05,2938.99,3165.03,350.19,345.23,15.51,0000 0000 0000 0000 000000
2014-10-13 05:26:59,0.09,1.38,0.00,23.27,27.22,29.99,4.78,26.45,1009.30,2035.98,2890.30,2938.26,3164.63,350.22,345.09,15.54,0000 0000 0000 0000 000000
2014-10-13 05:32:00,0.01,1.38,0.00,23.23,27.22,29.98,4.67,26.49,1009.30,2035.97,2889.95,2938.00,3164.03,349.63,344.67,15.57,0000 0000 0000 0000 000000
2014-10-13 05:37:02,0.07,1.38,0.00,23.24,27.22,29.97,4.76,26.54,1009.32,2035.97,2889.17,2937.65,3163.80,350.25,345.26,15.60,0000 0000 0000 0000 000000
2014-10-13 05:42:03,0.06,1.38,0.00,23.24,27.22,29.97,4.71,26.52,1009.32,2035.98,2888.56,2937.02,3163.06,349.81,344.73,15.63,0000 0000 0000 0000 000000
2014-10-13 05:47:04,0.01,1.38,0.00,23.25,27.22,29.97,4.78,26.54,1009.34,2035.99,2888.01,2936.97,3162.95,349.98,345.12,15.66,0000 0000 0000 0000 000000
2014-10-13 05:52:05,0.09,1.38,0.00,23.27,27.22,29.95,4.71,26.52,1009.40,2035.95,2887.25,2936.21,3162.17,349.70,344.89,15.69,0000 0000 0000 0000 000000
2014-10-13 05:57:06,0.02,1.38,0.00,23.27,27.22,29.97,4.73,26.50,1009.39,2035.95,2886.81,2936.00,3161.92,350.12,345.06,15.72,0000 0000 0000 0000 000000
2014-10-13 06:02:08,0.06,1.39,0.00,23.27,27.22,29.97,4.70,26.55,1009.43,2035.98,2886.04,2935.83,3161.33,349.55,344.59,15.75,0000 0000 0000 0000 000000
2014-10-13 06:07:09,0.04,1.39,0.00,23.26,27.22,29.97,4.73,26.57,1009.63,2035.99,2885.92,2935.21,3161.04,349.80,344.95,15.78,0000 0000 0000 0000 000000
2014-10-13 06:12:10,0.03,1.39,0.00,23.22,27.22,29.94,4.78,26.57,1009.58,2035.98,2885.10,2934.99,3160.88,350.28,345.27,15.80,0000 0000 0000 0000 000000
2014-10-13 06:17:11,0.10,1.39,0.00,23.23,27.22,29.81,4.72,26.60,1009.33,2035.98,2884.46,2934.34,3160.12,349.90,344.75,15.83,0000 0000 0000 0000 000000
2014-10-13 06:22:13,0.03,1.39,0.00,23.24,27.22,29.61,4.71,26.61,1009.33,2035.93,2883.77,2933.97,3159.60,349.83,344.76,15.86,0000 0000 0000 0000 000000
2014-10-13 06:27:14,0.04,1.39,0.00,23.23,27.24,29.54,4.71,26.66,1009.48,2035.81,2883.03,2933.20,3159.00,349.81,344.76,15.89,0000 0000 0000 0000 000000
2014-10-13 06:32:15,0.00,1.39,0.00,23.25,27.26,29.58,4.76,26.77,1009.71,2035.39,2882.30,2932.77,3158.24,349.82,344.83,15.92,0000 0000 0000 0000 000000
2014-10-13 06:37:16,0.04,1.40,0.00,23.31,27.29,29.67,4.76,26.88,1009.78,2035.08,2881.62,2932.00,3157.65,349.90,344.90,15.95,0000 0000 0000 0000 000000
2014-10-13 06:42:17,0.08,1.40,0.00,23.53,27.33,29.78,4.79,26.77,1009.78,2035.00,2880.67,2931.15,3156.89,349.84,344.71,15.98,0000 0000 0000 0000 000000
2014-10-13 06:47:18,0.07,1.40,0.00,23.74,27.37,29.89,4.72,26.73,1009.78,2035.00,2879.96,2930.62,3156.07,349.86,344.37,16.01,0000 0000 0000 0000 000000
2014-10-13 06:52:19,0.06,1.40,0.00,23.94,27.42,29.97,4.68,26.60,1009.78,2034.95,2879.13,2929.94,3155.32,349.91,344.13,16.04,0000 0000 0000 0000 000000
2014-10-13 06:57:20,0.03,1.40,0.00,24.08,27.47,30.07,4.72,26.58,1009.75,2034.64,2878.54,2929.13,3154.59,350.32,344.32,16.07,0000 0000 0000 0000 000000
2014-10-13 07:02:21,-0.00,1.40,0.00,24.11,27.53,30.17,4.72,26.67,1009.76,2034.12,2877.82,2928.55,3153.90,350.06,344.17,16.10,0000 0000 0000 0000 000000
2014-10-13 07:07:23,0.06,1.40,0.00,23.92,27.59,30.26,4.70,26.59,1009.78,2034.00,2876.90,2927.92,3153.07,349.59,343.83,16.13,0000 0000 0000 0000 000000
2014-10-13 07:12:24,0.09,1.41,0.00,23.68,27.65,30.36,4.70,26.51,1009.78,2034.00,2875.97,2927.09,3152.28,349.34,343.95,16.16,0000 0000 0000 0000 000000
2014-10-13 07:17:25,0.09,1.41,0.00,23.50,27.70,30.62,4.79,26.52,1009.79,2033.96,2875.03,2926.27,3151.40,350.69,345.51,16.19,0000 0000 0000 0000 000000
2014-10-13 07:22:27,-0.00,1.41,0.00,23.38,27.73,30.86,4.76,26.46,1009.93,2033.72,2874.12,2925.82,3150.82,350.44,345.42,16.21,0000 0000 0000 0000 000000
2014-10-13 07:27:28,0.03,1.41,0.00,23.38,27.76,30.78,4.68,26.41,1010.13,2033.26,2873.28,2925.05,3150.06,349.38,344.51,16.24,0000 0000 0000 0000 000000
2014-10-13 07:32:29,0.05,1.41,0.00,23.41,27.79,30.77,4.73,26.55,1010.17,2033.06,2872.65,2924.69,3149.56,349.72,344.86,16.27,0000 0000 0000 0000 000000
2014-10-13 07:37:30,0.06,1.41,0.00,23.37,27.80,30.76,4.77,26.55,1010.12,2033.01,2871.69,2924.01,3148.86,349.79,344.94,16.30,0000 0000 0000 0000 000000
2014-10-13 07:42:32,0.08,1.42,0.00,23.28,27.82,30.61,4.78,26.52,1009.97,2033.00,2870.99,2923.32,3148.08,350.27,345.35,16.33,0000 0000 0000 0000 000000
2014-10-13 07:47:33,0.04,1.42,0.00,23.20,27.82,30.53,4.76,26.40,1009.84,2033.00,2870.15,2922.99,3147.79,350.26,345.22,16.36,0000 0000 0000 0000 000000
2014-10-13 07:52:34,0.05,1.42,0.00,23.27,27.82,30.58,4.70,26.44,1009.80,2033.00,2869.97,2922.58,3147.10,349.75,344.86,16.39,0000 0000 0000 0000 000000
2014-10-13 07:57:35,0.05,1.42,0.00,23.33,27.82,30.58,4.75,26.47,1009.81,2033.00,2869.21,2922.02,3146.89,349.84,344.86,16.42,0000 0000 0000 0000 000000
2014-10-13 08:02:36,0.09,1.42,0.00,23.23,27.82,30.47,4.78,26.48,1009.81,2032.99,2868.58,2921.57,3146.10,349.72,344.90,16.45,0000 0000 0000 0000 000000
2014-10-13 08:07:37,0.02,1.43,0.00,23.14,27.81,30.48,4.77,26.48,1009.82,2032.99,2867.99,2921.02,3145.91,349.91,345.26,16.48,0000 0000 0000 0000 000000
2014-10-13 08:12:39,0.05,1.43,0.00,23.11,27.80,30.40,4.71,26.45,1009.82,2032.99,2867.25,2920.97,3145.20,349.42,344.65,16.51,0000 0000 0000 0000 000000
2014-10-13 08:17:40,0.03,1.43,0.00,23.19,27.79,30.36,4.77,26.42,1009.85,2032.99,2867.01,2920.49,3145.00,350.36,345.46,16.54,0000 0000 0000 0000 000000
2014-10-13 08:22:41,0.04,1.43,0.00,23.24,27.77,30.39,4.73,26.52,1009.91,2032.99,2866.64,2920.03,3144.80,349.82,345.02,16.57,0000 0000 0000 0000 000000
2014-10-13 08:27:43,0.03,1.43,0.00,23.23,27.76,30.32,4.77,26.55,1010.08,2032.99,2866.00,2919.92,3144.06,349.89,344.96,16.60,0000 0000 0000 0000 000000
2014-10-13 08:32:44,0.07,1.43,0.00,23.21,27.75,30.39,4.86,26.60,1010.17,2032.99,2865.34,2919.24,3143.98,350.40,345.69,16.62,0000 0000 0000 0000 000000
2014-10-13 08:37:45,0.04,1.43,0.00,23.25,27.74,30.39,4.70,26.54,1010.27,2032.99,2864.81,2919.01,3143.26,349.67,344.97,16.65,0000 0000 0000 0000 000000
2014-10-13 08:42:47,0.03,1.43,0.00,23.25,27.72,30.32,4.78,26.41,1010.27,2032.99,2864.09,2918.82,3143.00,350.57,345.65,16.68,0000 0000 0000 0000 000000
2014-10-13 08:47:48,0.07,1.44,0.00,23.17,27.71,30.33,4.70,26.43,1010.27,2032.99,2863.66,2918.08,3142.70,349.78,345.02,16.71,0000 0000 0000 0000 000000
2014-10-13 08:52:49,0.03,1.44,0.00,23.17,27.70,30.31,4.74,26.50,1010.28,2032.99,2863.02,2917.99,3142.06,349.86,345.31,16.74,0000 0000 0000 0000 000000
2014-10-13 08:57:51,0.06,1.44,0.00,23.25,27.69,30.33,4.71,26.51,1010.28,2033.00,2862.38,2917.62,3141.96,350.20,345.43,16.77,0000 0000 0000 0000 000000
2014-10-13 09:02:52,0.04,1.44,0.00,23.26,27.67,30.34,4.81,26.57,1010.28,2033.01,2861.98,2917.05,3141.38,350.49,345.57,16.80,0000 0000 0000 0000 000000
2014-10-13 09:07:53,0.03,1.44,0.00,23.26,27.66,30.32,4.75,26.50,1010.30,2033.04,2861.33,2917.00,3141.02,350.09,345.30,16.83,0000 0000 0000 0000 000000
2014-10-13 09:12:55,0.01,1.44,0.00,23.27,27.65,30.34,4.73,26.49,1010.33,2033.04,2860.96,2916.84,3140.97,349.96,345.05,16.86,0000 0000 0000 0000 000000
2014-10-13 09:17:56,0.09,1.44,0.00,23.27,27.65,30.33,4.70,26.48,1010.47,2033.06,2860.22,2916.11,3140.44,349.62,345.21,16.89,0000 0000 0000 0000 000000
2014-10-13 09:22:57,0.02,1.45,0.00,23.26,27.62,30.32,4.82,26.62,1010.71,2033.09,2859.99,2915.99,3140.00,350.29,345.62,16.92,0000 0000 0000 0000 000000
2014-10-13 09:27:58,0.05,1.45,0.00,23.25,27.62,30.29,4.74,26.56,1010.64,2033.12,2859.33,2915.82,3139.91,350.29,345.56,16.95,0000 0000 0000 0000 000000
2014-10-13 09:32:59,0.06,1.45,0.00,23.26,27.61,30.30,4.72,26.49,1010.67,2033.17,2858.99,2915.09,3139.14,349.77,345.19,16.98,0000 0000 0000 0000 000000
2014-10-13 09:38:01,0.03,1.45,0.00,23.27,27.60,30.30,4.80,26.55,1010.68,2033.22,2858.22,2914.99,3138.99,349.69,345.06,17.01,0000 0000 0000 0000 000000
2014-10-13 09:43:02,0.09,1.45,0.00,23.26,27.60,30.31,4.71,26.50,1010.70,2033.46,2857.99,2914.86,3138.88,349.79,345.16,17.03,0000 0000 0000 0000 000000
2014-10-13 09:48:03,0.08,1.46,0.00,23.25,27.58,30.30,4.74,26.59,1010.63,2033.63,2857.33,2914.12,3138.13,349.60,345.06,17.06,0000 0000 0000 0000 000000
2014-10-13 09:53:05,0.03,1.46,0.00,23.27,27.57,30.28,4.74,26.57,1010.56,2033.68,2856.88,2913.99,3137.99,350.26,345.36,17.09,0000 0000 0000 0000 000000
2014-10-13 09:58:06,0.09,1.46,0.00,23.26,27.57,30.25,4.86,26.57,1010.61,2033.85,2856.10,2913.80,3137.53,350.27,345.66,17.12,0000 0000 0000 0000 000000
2014-10-13 10:03:07,0.07,1.46,0.00,23.26,27.55,30.26,4.71,26.51,1010.58,2033.91,2855.60,2913.06,3137.01,350.07,345.39,17.15,0000 0000 0000 0000 000000
2014-10-13 10:08:08,0.02,1.46,0.00,23.27,27.55,30.27,4.81,26.52,1010.54,2033.96,2855.16,2913.00,3136.99,350.41,345.74,17.18,0000 0000 0000 0000 000000
2014-10-13 10:13:09,0.02,1.46,0.00,23.22,27.54,30.24,4.88,26.55,1010.63,2033.97,2854.97,2912.93,3136.64,350.88,346.07,17.21,0000 0000 0000 0000 000000
2014-10-13 10:18:10,0.06,1.46,0.00,23.18,27.52,30.22,4.84,26.58,1010.72,2033.98,2854.82,2912.29,3136.04,350.23,345.73,17.24,0000 0000 0000 0000 000000
2014-10-13 10:23:12,0.03,1.47,0.00,23.26,27.52,30.25,4.82,26.64,1010.68,2033.99,2854.20,2912.02,3136.00,350.34,345.75,17.27,0000 0000 0000 0000 000000
2014-10-13 10:28:13,0.02,1.47,0.00,23.23,27.52,30.25,4.73,26.58,1010.66,2033.95,2853.87,2911.96,3135.34,349.88,345.27,17.30,0000 0000 0000 0000 000000
2014-10-13 10:33:14,0.08,1.47,0.00,23.18,27.50,30.23,4.63,26.67,1010.71,2033.95,2853.12,2911.26,3135.00,349.42,344.75,17.33,0000 0000 0000 0000 000000
2014-10-13 10:38:15,0.02,1.47,0.00,23.18,27.50,30.24,4.75,26.73,1010.75,2033.95,2852.66,2910.99,3134.91,350.00,345.51,17.36,0000 0000 0000 0000 000000
2014-10-13 10:43:16,0.11,1.47,0.00,23.23,27.50,30.25,4.71,26.57,1010.76,2033.97,2851.39,2910.41,3134.16,349.69,344.82,17.39,0000 0000 0000 0000 000000
2014-10-13 10:48:17,0.02,1.47,0.00,23.23,27.49,30.25,4.71,26.55,1010.76,2033.97,2850.97,2910.02,3134.00,349.87,345.28,17.42,0000 0000 0000 0000 000000
2014-10-13 10:53:18,0.05,1.47,0.00,23.22,27.48,30.25,4.79,26.63,1010.76,2033.97,2850.16,2909.97,3133.60,350.08,345.48,17.44,0000 0000 0000 0000 000000
2014-10-13 10:58:19,0.03,1.48,0.00,23.23,27.47,30.22,4.69,26.60,1010.76,2033.99,2849.99,2909.62,3133.07,349.82,345.19,17.47,0000 0000 0000 0000 000000
2014-10-13 11:03:20,0.03,1.48,0.00,23.25,27.47,30.21,4.72,26.63,1010.76,2033.98,2849.87,2909.05,3133.00,350.03,345.29,17.50,0000 0000 0000 0000 000000
2014-10-13 11:08:21,0.03,1.48,0.00,23.23,27.47,30.18,4.72,26.59,1010.76,2033.99,2849.17,2908.99,3132.71,350.43,345.82,17.53,0000 0000 0000 0000 000000
2014-10-13 11:13:23,0.03,1.48,0.00,23.24,27.47,30.24,4.73,26.57,1010.77,2033.99,2848.98,2908.81,3132.07,349.61,344.98,17.56,0000 0000 0000 0000 000000
2014-10-13 11:18:24,0.04,1.48,0.00,23.27,27.47,30.23,4.76,26.62,1010.78,2033.99,2848.73,2908.15,3132.00,350.15,345.64,17.59,0000 0000 0000 0000 000000
2014-10-13 11:23:25,0.03,1.48,0.00,23.24,27.46,30.23,4.84,26.76,1010.79,2033.98,2848.09,2908.00,3131.63,350.12,345.55,17.62,0000 0000 0000 0000 000000
2014-10-13 11:28:26,0.05,1.48,0.00,23.23,27.45,30.21,4.80,26.69,1010.77,2033.98,2847.30,2907.81,3131.02,349.96,345.31,17.65,0000 0000 0000 0000 000000
2014-10-13 11:33:28,0.04,1.48,0.00,23.26,27.45,30.23,4.86,26.79,1010.78,2033.99,2846.95,2907.10,3130.98,350.41,345.68,17.68,0000 0000 0000 0000 000000
2014-10-13 11:38:29,0.06,1.49,0.00,23.23,27.45,30.25,4.76,26.74,1010.82,2033.99,2846.15,2906.99,3130.20,349.89,345.59,17.71,0000 0000 0000 0000 000000
2014-10-13 11:43:30,0.02,1.49,0.00,23.24,27.45,30.21,4.85,26.63,1010.86,2033.99,2845.97,2906.74,3130.00,350.51,345.78,17.74,0000 0000 0000 0000 000000
2014-10-13 11:48:32,0.06,1.49,0.00,23.26,27.45,30.23,4.75,26.63,1010.85,2033.98,2845.27,2906.08,3129.90,350.17,345.57,17.77,0000 0000 0000 0000 000000
2014-10-13 11:53:33,0.03,1.49,0.00,23.23,27.45,30.21,4.72,26.64,1010.94,2033.99,2844.99,2905.99,3129.17,349.83,345.40,17.80,0000 0000 0000 0000 000000
2014-10-13 11:58:34,0.07,1.49,0.00,23.22,27.45,30.21,4.72,26.57,1010.94,2033.98,2844.42,2905.56,3129.00,350.21,345.64,17.83,0000 0000 0000 0000 000000
2014-10-13 12:03:35,0.03,1.49,0.00,23.24,27.45,30.23,4.80,26.67,1010.97,2033.98,2844.00,2905.02,3128.52,350.23,345.90,17.86,0000 0000 0000 0000 000000
2014-10-13 12:08:36,0.03,1.49,0.00,23.22,27.45,30.26,4.88,26.73,1010.99,2033.98,2843.42,2904.99,3128.02,350.79,345.94,17.88,0000 0000 0000 0000 000000
2014-10-13 12:13:38,0.05,1.50,0.00,23.21,27.45,30.26,4.69,26.65,1010.93,2033.98,2842.98,2904.38,3127.95,349.88,345.41,17.91,0000 0000 0000 0000 000000
2014-10-13 12:18:39,0.06,1.50,0.00,23.27,27.45,30.24,4.70,26.63,1010.80,2033.98,2842.18,2904.01,3127.27,349.55,344.82,17.94,0000 0000 0000 0000 000000
2014-10-13 12:23:40,0.00,1.50,0.00,23.26,27.44,30.21,4.74,26.66,1010.79,2033.98,2841.99,2903.99,3127.00,350.17,345.46,17.97,0000 0000 0000 0000 000000
2014-10-13 12:28:41,0.07,1.50,0.00,23.23,27.44,30.25,4.93,26.74,1010.89,2033.98,2841.43,2903.54,3126.84,350.37,345.86,18.00,0000 0000 0000 0000 000000
2014-10-13 12:33:42,0.05,1.50,0.00,23.25,27.43,30.25,4.65,26.63,1011.08,2033.99,2840.70,2903.02,3126.10,349.99,345.51,18.03,0000 0000 0000 0000 000000
2014-10-13 12:38:43,0.03,1.50,0.00,23.26,27.43,30.27,4.81,26.58,1011.22,2033.98,2840.04,2902.81,3125.93,350.45,345.76,18.06,0000 0000 0000 0000 000000
2014-10-13 12:43:44,0.06,1.50,0.00,23.22,27.43,30.26,4.69,26.65,1011.24,2033.96,2839.92,2902.14,3125.35,349.36,344.82,18.09,0000 0000 0000 0000 000000
2014-10-13 12:48:46,0.04,1.51,0.00,23.24,27.43,30.25,4.71,26.62,1011.24,2033.98,2839.10,2902.00,3125.01,349.70,345.14,18.12,0000 0000 0000 0000 000000
2014-10-13 12:53:47,0.03,1.51,0.00,23.23,27.44,30.27,4.75,26.57,1011.24,2033.98,2838.70,2901.87,3124.88,349.98,345.48,18.15,0000 0000 0000 0000 000000
2014-10-13 12:58:48,0.07,1.51,0.00,23.17,27.44,30.25,4.74,26.66,1011.24,2033.98,2838.04,2901.21,3124.20,349.78,345.34,18.18,0000 0000 0000 0000 000000